This demonstration page uses our WeatherBlox Daily Observations layout. Learn more.

Left ArrowRight Arrow

38.80484, -77.04692

Hourly Observations for July 6, 2022

Temp ( °F °C ) Dew Point ( °F °C ) Humidity (%) Winds ( mph kmh ) Pressure ( in mb ) Visibility ( mi km ) Precip ( " mm )
12:52 am 00:52 Mostly Cloudy 81 27.2 69 20.6 67 67 W 10 17 29.87 1011 10 16 0.00 0.00
1:52 am 01:52 Mostly Clear 80 26.7 68 20 67 67 WSW 6 9 29.88 1012 10 16 0.00 0.00
2:52 am 02:52 Mostly Clear 79 26.1 68 20 69 69 SSW 3 6 29.88 1012 10 16 0.00 0.00
3:52 am 03:52 Clear 77 25 68 20 74 74 SW 8 13 29.88 1012 10 16 0.00 0.00
4:52 am 04:52 Mostly Cloudy 75 23.9 68 20 79 79 SSW 7 11 29.88 1012 10 16 0.00 0.00
5:52 am 05:52 Mostly Cloudy 76 24.4 67 19.4 74 74 S 5 7 29.89 1012 10 16 0.00 0.00
6:52 am 06:52 Mostly Cloudy 77 25 67 19.4 71 71 SW 3 6 29.89 1012 10 16 0.00 0.00
7:52 am 07:52 Mostly Cloudy 80 26.7 67 19.4 64 64 WSW 3 6 29.91 1013 10 16 0.00 0.00
8:52 am 08:52 Mostly Cloudy 86 30 68 20 55 55 W 8 13 29.90 1013 10 16 0.00 0.00
9:52 am 09:52 Mostly Cloudy 88 31.1 68 20 52 52 VRB 7 11 29.90 1013 10 16 0.00 0.00
10:52 am 10:52 Cloudy 87 30.6 66 18.9 50 50 VRB 5 7 29.89 1012 10 16 0.00 0.00
11:52 am 11:52 Cloudy 88 31.1 67 19.4 50 50 WSW 8 13 29.90 1013 10 16 0.00 0.00
12:52 pm 12:52 Cloudy 86 30 67 19.4 53 53 NNW 7 11 29.91 1013 10 16 0.00 0.00
1:52 pm 13:52 Cloudy 89 31.7 69 20.6 52 52 N 7 11 29.91 1013 10 16 0.00 0.00
2:52 pm 14:52 Mostly Cloudy 92 33.3 66 18.9 43 43 NNW 6 9 29.90 1013 10 16 0.00 0.00
3:52 pm 15:52 Mostly Cloudy 91 32.8 67 19.4 45 45 VRB 7 11 29.88 1012 10 16 0.00 0.00
4:52 pm 16:52 Mostly Cloudy 93 33.9 69 20.6 46 46 SW 6 9 29.85 1011 10 16 0.00 0.00
5:52 pm 17:52 Mostly Cloudy 90 32.2 72 22.2 56 56 S 10 17 29.85 1011 10 16 0.00 0.00
6:52 pm 18:52 Mostly Cloudy 90 32.2 70 21.1 52 52 SSW 10 17 29.86 1011 10 16 0.00 0.00
7:52 pm 19:52 Mostly Cloudy 88 31.1 73 22.8 61 61 SSW 10 17 29.86 1011 10 16 0.00 0.00
8:52 pm 20:52 Mostly Cloudy 85 29.4 71 21.7 63 63 S 3 6 29.88 1012 10 16 0.00 0.00
9:36 pm 21:36 Mostly Cloudy with Nearby Thunderstorms 83 28.3 75 23.9 77 77 NE 8 13 29.89 1012 10 16 0.00 0.00
9:52 pm 21:52 Mostly Cloudy with Nearby Thunderstorms 82 27.8 75 23.9 79 79 NE 8 13 29.90 1012 10 16 0.00 0.00
10:08 pm 22:08 Mostly Cloudy 81 27.2 73 22.8 77 77 NNE 12 19 29.90 1012 10 16 0.00 0.00
10:52 pm 22:52 Cloudy 80 26.7 72 22.2 76 76 NE 7 11 29.91 1013 10 16 0.00 0.00
11:52 pm 23:52 Mostly Cloudy 79 26.1 72 22.2 79 79 NE 10 17 29.89 1012 10 16 0.00 0.00

Powered by AerisWeather